Regional Weather Roundup
Issued by NWS Upton, NY

Current Version | Previous Version | Graphics & Text | Print | Product List | Glossary Off
Versions: 1 2 3 4 5 6 7 8 9 10 11 12 13 14 15 16 17 18 19 20 21 22 23 24 25 26 27

000
ASUS41 KOKX 240805
RWROKX

Regional Weather Roundup
National Weather Service New York NY
400 AM EDT TUE APR 24 2018

Note: "FAIR" indicates few or no clouds below 12,000 feet with no
significant weather and/or obstructions to visibility.

NYZ071-072-176-178-NJZ106-104-240900-
New York City Metro Area

CITY           SKY/WX    TMP DP  RH WIND       PRES   REMARKS
Central Park   FAIR      48  41  76 CALM      30.42S
Bronx Bot Gard   N/A     43  41  93 CALM      30.40F
Bronx Lehman C   N/A     46  41  81 E3          N/A
LaGuardia Arpt FAIR      48  42  80 SE5       30.40S
Queens College   N/A     46  43  87 SE7         N/A
Kennedy Intl   MOCLDY    43  42  97 SE3       30.42R
Breezy Point     N/A     45 N/A N/A SE6         N/A
Brooklyn Coll    N/A     46  45  93 SE2         N/A
Staten Island    N/A     45  39  81 CALM        N/A
Newark/Liberty FAIR      47  40  76 CALM      30.40S
Teterboro      FAIR      45  39  79 CALM      30.40R
$$

NYZ177-179-078>081-240900-
Long Island New York

CITY           SKY/WX    TMP DP  RH WIND       PRES   REMARKS
Jones Beach      N/A     45 N/A N/A E3          N/A
Wantagh          N/A     39  37  93 NE3         N/A
Hempstead        N/A     43  41  93 CALM      30.43S
Matinecock Pt    N/A     45 N/A N/A MISG        N/A
Farmingdale    FAIR      40  38  93 CALM      30.41F
MacArthur/ISP  FAIR      38  38 100 CALM      30.41S
Stony Brook      N/A     43  41  93 SW1         N/A
Shirley        FAIR      35  34  96 CALM      30.42F
Mt Sinai Harb    N/A    N/A N/A N/A W1          N/A
Westhampton    FAIR      26  22  84 CALM      30.44S
East Hampton   FAIR      28  27  94 CALM      30.43S
Southold         N/A     43  41  93 S5          N/A
Montauk          N/A     43  39  86 S3        30.44S
$$

NYZ052-065-067-240900-
Hudson Valley

CITY           SKY/WX    TMP DP  RH WIND       PRES   REMARKS
White Plains   FAIR      38  35  89 CALM      30.39S
Larchmont Harb   N/A     41 N/A N/A N2          N/A
Croton On Huds   N/A     41 N/A N/A CALM        N/A
Somers           N/A     41  36  81 E2          N/A
Brewster         N/A     36  32  87 NW1         N/A
Newburgh       NOT AVBL
Montgomery     FAIR      35  30  82 CALM      30.37S
Otisville        N/A     36  32  87 CALM        N/A
Warwick          N/A     37  32  81 SE2         N/A
Suffern          N/A     41  37  87 CALM        N/A
Poughkeepsie   FAIR      37  31  78 CALM      30.38S
Albany         FAIR      48  24  39 S7        30.36R
$$

NJZ001-105-106-008-010-013-015-019>022-104-240900-
New Jersey

CITY           SKY/WX    TMP DP  RH WIND       PRES   REMARKS
Newark/Liberty FAIR      47  40  76 CALM      30.40S
Teterboro      FAIR      45  39  79 CALM      30.40R
Caldwell       FAIR      40  35  83 CALM      30.41R
Somerville     FAIR      35  34  96 CALM      30.38S
Linden         FAIR      45  39  81 CALM      30.41S
Perth Amboy      N/A     45 N/A N/A CALM        N/A
Sussex         FAIR      36  32  85 W3        30.39S
Andover          N/A     38  35  89 CALM      30.38S
Trenton        FAIR      42  32  67 NE5       30.38S
Millville      FAIR      37  34  89 CALM      30.37S
Atlantic City  FAIR      38  35  89 CALM      30.38F
Wrightstown    FAIR      37  35  93 CALM      30.37S
Toms River     FAIR      29  26  89 CALM      30.40F
Belmar         FAIR      40  38  93 E5          N/A
$$

PAZ047>061-062-071-240900-
Eastern Pennsylvania

CITY           SKY/WX    TMP DP  RH WIND       PRES   REMARKS
Philadelphia   FAIR      42  34  73 E6        30.38F
Allentown      FAIR      42  26  53 NE5       30.37S
Scranton       FAIR      49  24  37 CALM      30.34R
$$

CTZ002-004>006-009-010-012-RIZ004-006-007-MAZ004-011-015-240900-
Southern New England

 In CT

CITY           SKY/WX    TMP DP  RH WIND       PRES   REMARKS
Bradley Intl   FAIR      40  32  73 S5        30.40S
Hartford       FAIR      41  33  73 S5        30.41F
Danbury        FAIR      33  30  88 SW3       30.41S
Wtrbury/Oxford FAIR      40  36  86 CALM      30.41S
Norwalk Harbor   N/A     39 N/A N/A N3          N/A
Bridgeport     FAIR      40  38  93 CALM      30.42S
Meriden        FAIR      34  32  92 CALM      30.42S
New Haven      FAIR      37  34  89 CALM      30.42F
Chester        FAIR      41  39  93 S5        30.41F
Groton         FAIR      36  36 100 CALM      30.43S FOG
Willimantic    FAIR      34  28  79 CALM      30.43S

 In RI

CITY           SKY/WX    TMP DP  RH WIND       PRES   REMARKS
Providence     FAIR      39  36  89 CALM      30.43S
Block Island   FAIR      43  38  82 S12       30.44S
Westerly       FAIR      34  32  92 CALM      30.44S

In MA

CITY           SKY/WX    TMP DP  RH WIND       PRES   REMARKS
Boston         FAIR      43  30  60 SW7       30.41S
Worcester      FAIR      42  26  53 W13       30.37F
Westfield      FAIR      35  27  72 CALM      30.40R
Provincetown   FAIR      42  36  79 S9        30.43S
Nantucket      FAIR      37  37 100 S6        30.45S WCI  32
$$

ANZ330-335-338-340-345-350-353-355-240900-
Coastal Marine Observations


STATION/POSITION TIME  SKY/WX   TEMP    WIND        PRES    VSBY  WAVE
                                AIR SEA DIR/SP/G                  HT/PER
                 (UTC)          (F)     (DEG/KT/KT) (MB)    (MI)  (FT/S)
NY Harb Entrance 0750            46 46   CALM  /  2 1029.8          1/ 8
20 S Fire Island 0750            47 44  140/  8/  8 1029.6          1/ 9
23 SSW Montauk P 0750            45 44  180/  6/  6 1030.7          1/15
15 E Barnegat Li 0730               46                N/A           1/13
Hudson Canyon    0750            50 46  140/  6/  8 1029.6          1/15
Kings Point      0742            45 46  130/  1/  3 1030.5
Execution Rocks  NOT AVBL
Western LI Sound NOT AVBL
Central LI Sound 0745            44      80/  4/  4   N/A           0
Robbins Reef     0742            48     160/  7/  8 1030.1
$$


>>>>>>>>>>>>>>>>>>>>>>>>>>>> KEY <<<<<<<<<<<<<<<<<<<<<<<<<<<
>                                                          <
>     SKY/WX - Sky Condition/Present Weather               <
>     TMP    - Temperature in Fahrenheit                   <
>     DP     - Dew Point in Fahrenheit                     <
>     RH     - Relative Humidity in Percent                <
>     WIND   - Direction (from) and Speed in MPH           <
>     PRES   - Mean Sea Level Pressure (inches of Hg)      <
>     WCI    - Wind Chill Index                            <
>     VSB    - Visibility in Miles                         <
>     HX     - Heat Index                                  <
>     TC     - Temperature in Celsius                      <
>     VRB    - Varibale Wind Direction                     <
>                                                          <
>>>>>>>>>>>>>>>>>>>>>>>>>>>> KEY <<<<<<<<<<<<<<<<<<<<<<<<<<<




USA.gov is the U.S. government's official web portal to all federal, state and local government web resources and services.